Weather in Pozharskoye

Russia / Primorsky Krai     46˚15′13″N   134˚03′49″E
temp.,
°C
wind,
m/s
gust,
m/s
humid.,
%
clouds,
%
prec.,
mm/h
press.,
hPa
HPBL,
m
16 january, sat
sat1601:00−16˚n2696100 0.3 1020274
04:00−18˚nnw2293100 0.3 102029
07:00−23˚w239385 0.0 102120
10:00−24˚sw229443 0.0 102349
13:00−20˚sw23899 0.0 1023280
16:00−19˚sw459037 0.0 1022327
19:00−24˚sw339411 0.0 102537
22:00−26˚sw23956 0.0 102520
17 january, sun
sun1701:00−27˚ssw239714 0.0 102520
04:00−28˚ssw229912 0.0 102420
07:00−29˚ssw229852 0.0 102419
10:00−27˚s239635 0.0 102395
13:00−22˚ssw349386 0.0 1021387
16:00−20˚ssw249393 0.1 1019395
19:00−24˚ssw129796 0.0 102020
22:00−26˚sse129767 0.0 102020
18 january, mon
mon1801:00−26˚e12961 0.0 101819
04:00−25˚e239433 0.0 101626
07:00−23˚ene2392100 0.0 101477
10:00−21˚ene1298100 0.3 1013115
13:00−17˚nne1090100 0.2 1011315
16:00−17˚nw3491100 0.4 1011547
19:00−18˚nw4897100 0.3 1015512
22:00−22˚wnw4791100 0.3 1019234
19 january, tue
tue1901:00−24˚wnw4891100 0.0 1021161
04:00−29˚w359169 0.0 102577
07:00−30˚sw33910 0.0 102838
10:00−29˚sw35910 0.0 1031137
13:00−23˚wsw46833 0.0 1032632
16:00−22˚wsw588134 0.0 1032702
19:00−27˚ssw34930 0.0 103450
22:00−29˚ssw33950 0.0 103533
20 january, wed
wed2001:00−30˚ssw23960 0.0 103428
04:00−30˚s229624 0.0 103419
07:00−31˚se11948 0.0 103319
10:00−27˚sse11895 0.0 103355
13:00−21˚ssw24770 0.0 1029357
16:00−18˚sw258134 0.0 1027356
19:00−20˚wsw1190100 0.0 102620
22:00−19˚sw1297100 0.1 102527